Preview of NWS' New Version of Forecast
This preview is not operational and should not be used for support decisions.

Regional Weather Roundup (RWR)

Issued by National Weather Service (NWS)

                            
000
ASUS46 KPQR 180010
RWROR 

OREGON REGIONAL WEATHER ROUNDUP
NATIONAL WEATHER SERVICE PORTLAND OR
400 PM PST SUN FEB 17 2019

NOTE: "FAIR" INDICATES FEW OR NO CLOUDS BELOW 12,000 FEET WITH
NO SIGNIFICANT WEATHER AND/OR OBSTRUCTIONS TO VISIBILITY.

ORZ001>013-180100-
NORTHWEST OREGON

  
CITY           SKY/WX    TMP DP  RH WIND       PRES   REMARKS
ASTORIA        SUNNY     46  34  62 NW3       30.22R                  
6HR MIN TEMP:  36; 6HR MAX TEMP:  46;                                

TILLAMOOK      SUNNY     46  36  66 W7        30.23S                  
NEWPORT        CLOUDY    45  36  70 N9        30.24S                  
PORTLAND       PTSUNNY   43  32  65 N5        30.23R                  
6HR MIN TEMP:  40; 6HR MAX TEMP:  44;                                

VANCOUVER WA   CLOUDY    43  31  62 VRB5      30.22R                  
6HR MIN TEMP:  39; 6HR MAX TEMP:  44;                                

SCAPPOOSE      PTSUNNY   45  32  60 N5        30.22R                  
6HR MIN TEMP:  40; 6HR MAX TEMP:  47;                                

HILLSBORO      PTSUNNY   41  34  76 W5        30.22R                  
6HR MIN TEMP:  36; 6HR MAX TEMP:  42;                                

AURORA         PTSUNNY   42  33  70 N5        30.23R                  
6HR MIN TEMP:  37; 6HR MAX TEMP:  43;                                

MCMINNVILLE    SUNNY     41  33  73 NW8       30.23R                  
6HR MIN TEMP:  34; 6HR MAX TEMP:  43;                                

SALEM          SUNNY     43  32  65 NW8       30.22R                  
6HR MIN TEMP:  37; 6HR MAX TEMP:  44;                                

CORVALLIS      PTSUNNY   44  35  70 VRB7      30.22R                  
EUGENE         MOSUNNY   43  33  68 N10       30.20R                  
6HR MIN TEMP:  39; 6HR MAX TEMP:  47;                                

$$

ORZ021-028-180100-
SOUTHWEST OREGON

  
CITY           SKY/WX    TMP DP  RH WIND       PRES   REMARKS
NORTH BEND     LGT RAIN  46  39  76 N9        30.21R                  
6HR MIN TEMP:  39; 6HR MAX TEMP:  47; 6HR PCP: TRACE;                

BROOKINGS      MOSUNNY   44  37  76 NW10      30.13R                  
ROSEBURG       PTSUNNY   46  30  53 N9        30.17R                  
6HR MIN TEMP:  36; 6HR MAX TEMP:  46;                                

SEXTON SUMMIT  CLOUDY    27  26  96 VRB5      30.02R                  
6HR MIN TEMP:  26; 6HR MAX TEMP:  30; 6HR PCP:  0.01;                

GRANTS PASS    FAIR      43  30  61 NW7       30.14                   
MEDFORD        MOSUNNY   43  25  49 W8        30.09R                  
6HR MIN TEMP:  32; 6HR MAX TEMP:  43;                                

$$

ORZ014>016-041-180100-
COLUMBIA GORGE

  
CITY           SKY/WX    TMP DP  RH WIND       PRES   REMARKS
TROUTDALE      CLOUDY    43  32  65 VRB5      30.23R                  
6HR MIN TEMP:  39; 6HR MAX TEMP:  43;                                

HOOD RIVER     MOSUNNY   39  30  70 W3        30.15S                  
THE DALLES     PTSUNNY   35  29  78 NE6       30.17R                  
6HR MIN TEMP:  31; 6HR MAX TEMP:  38;                                

$$

ORZ029>031-041-044-049-050-061>064-502-503-505>511-180100-
EASTERN OREGON

  
CITY           SKY/WX    TMP DP  RH WIND       PRES   REMARKS
MADRAS         NOT AVBL                                               
REDMOND        MOSUNNY   38  21  50 N12       30.05R WCI  30          
6HR MIN TEMP:  33; 6HR MAX TEMP:  40;                                

BEND           MOSUNNY   37  19  48 N9        30.04R                  
PRINEVILLE     SUNNY     36  21  55 N10       30.04  WCI  28          
KLAMATH FALLS  SUNNY     33  17  51 N8        29.96R                  
6HR MIN TEMP:  27; 6HR MAX TEMP:  34; 6HR PCP: TRACE;                

LAKEVIEW       MOSUNNY   30  18  60 N14       29.93R WCI  19          
HERMISTON      CLOUDY    35  31  85 W3        30.16R                  
6HR MIN TEMP:  33; 6HR MAX TEMP:  36; 6HR PCP:  0.04;                

PENDLETON      CLOUDY    32  29  88 NW6       30.11S FOG              
6HR MIN TEMP:  30; 6HR MAX TEMP:  32; 6HR PCP:  0.01;                

JOHN DAY       CLOUDY    33  27  77 W8        29.99                   
MEACHAM        FOG       24  22  91 NW5       30.01R VSB 1/4          
6HR MIN TEMP:  24; 6HR MAX TEMP:  27; 6HR PCP:  0.02;                

LA GRANDE      CLOUDY    31  25  78 W18G24    30.03R WCI  19          
6HR MIN TEMP:  31; 6HR MAX TEMP:  36;                                

BAKER CITY     MOSUNNY   34  22  61 NW15      29.96R WCI  24          
6HR MIN TEMP:  32; 6HR MAX TEMP:  38;                                

BURNS          SUNNY     31  16  54 NW15      29.94R WCI  20          
6HR MIN TEMP:  28; 6HR MAX TEMP:  34;                                

ROME             N/A     31  23  72 S6        29.90R                  
6HR MIN TEMP:  26; 6HR MAX TEMP:  36; 6HR PCP:  0.02;                

ONTARIO        SUNNY     43  24  47 NW12      29.98R                  
6HR MIN TEMP:  36; 6HR MAX TEMP:  45;                                

$$